Flag for Japan Weather past 2 weeks in Hamamatsu, Japan

Now
42 °F

Quite cool.


Feels Like: 34 °F
Forecast: 39 / 50 °F
Wind: 18 mph from West

Location: Omaezaki

Current Time: Dec 23, 2014 at 8:31:40 AM

Latest Report: Dec 23, 2014 at 7:00 AM


Visibility: 13 mi

Pressure: 30.12 "Hg

Humidity: 69%

Dew point: 33 °F

Location of HamamatsuLocation

Historic Weather in Hamamatsu — Graph

°F

Hamamatsu temperature yesterday

Maximum temperature yesterday: 45 °F (at 2:00 PM)
Minimum temperature yesterday: 37 °F (at 5:00 AM)
Average temperature yesterday: 41 °F

Past Weeks' High & Low Weather Summary

 TemperatureHumidityPressure
High61 °F (Dec 20, 7:00 PM)100% (Dec 11, 9:00 AM)30.46 "Hg (Dec 11, 9:00 AM)
Low30 °F (Dec 19, 5:00 AM)34% (Dec 17, 3:00 PM)29.29 "Hg (Dec 16, 5:00 PM)
Average45 °F61%30.04 "Hg
* Reported Dec 8 7:00 AM — Dec 23 7:00 AM, Hamamatsu, Weather by CustomWeather, © 2014

Note: Actual official high and low records may vary slightly from our data, if they occured in-between our weather recording intervals... More about our weather records

Advertising

Hamamatsu weather history for previous 24 hours

 ConditionsComfort  
Time TempWeatherWind HumidityBarometerVisibility
7:00 AM
Dec 23
42 °FQuite cool.18 mph69%30.12 "Hg12 mi
5:00 AM40 °FQuite cool.17 mph68%30.10 "Hg12 mi
4:00 AM40 °FQuite cool.21 mph64%30.06 "Hg12 mi
3:00 AM39 °FChilly.21 mph61%30.05 "Hg12 mi
12:00 AM40 °FChilly.26 mph52%30.03 "Hg12 mi
11:00 PM
Dec 22
40 °FQuite cool.28 mph49%30.02 "Hg12 mi
10:00 PM40 °FQuite cool.24 mph49%30.02 "Hg12 mi
9:00 PM40 °FQuite cool.23 mph49%30.01 "Hg12 mi
8:00 PM41 °FQuite cool.23 mph51%30.00 "Hg12 mi
7:00 PM40 °FQuite cool.16 mph46%30.00 "Hg12 mi
6:00 PM40 °FQuite cool.16 mph45%29.98 "Hg12 mi
5:00 PM42 °FQuite cool.20 mph41%29.96 "Hg12 mi
4:00 PM43 °FQuite cool.20 mph39%29.94 "Hg12 mi
3:00 PM45 °FQuite cool.20 mph35%29.91 "Hg12 mi
2:00 PM45 °FQuite cool.23 mph37%29.91 "Hg12 mi
1:00 PM45 °FQuite cool.23 mph35%29.91 "Hg12 mi
12:00 PM44 °FQuite cool.24 mph39%29.94 "Hg12 mi
11:00 AM43 °FQuite cool.22 mph42%29.98 "Hg12 mi
10:00 AM42 °FQuite cool.20 mph42%30.00 "Hg12 mi
9:00 AM40 °FQuite cool.16 mph46%29.99 "Hg12 mi
8:00 AM39 °FChilly.16 mph50%29.97 "Hg12 mi
Weather by CustomWeather, © 2014

See weather overviewHow to use our weather pages